Location: Kumla
(59.1265°N, 15.1401°E)
Time: 08:49:20
(UTC+01:00)

Transit 2A - Pass Details

Date: 11 December 2023
Orbit: 600 x 953 km, 66.7° (Epoch: 22 February)

Event Time Altitude Azimuth Distance (km) Brightness Sun altitude
Rises 17:40:37 0° 275° (W) 2,990 10.4 -18.1°
Reaches altitude 10° 17:43:10 10° 285° (WNW) 2,036 9.1 -18.4°
Maximum altitude 17:47:17 33° 350° (N) 1,054 6.7 -18.9°
Enters shadow 17:48:34 27° 23° (NNE) 1,176 6.7 -19.1°
Drops below altitude 10° 17:51:15 10° 55° (NE) 1,958 - -19.4°
Sets 17:53:40 0° 65° (ENE) 2,857 - -19.7°
